TimeCDT,TemperatureF,Dew PointF,Humidity,Sea Level PressureIn,VisibilityMPH,Wind Direction,Wind SpeedMPH,Gust SpeedMPH,PrecipitationIn,Events,Conditions,WindDirDegrees,DateUTC
12:15 AM,-9999,-9999,N/A,30.21,2.0,NNE,5.8,-,0.00,,Clear,20,2013-03-29 05:15:00
12:35 AM,-9999,-9999,N/A,30.21,0.2,North,5.8,-,0.00,,Mostly Cloudy,10,2013-03-29 05:35:00
12:55 AM,-9999,-9999,N/A,30.21,0.2,North,4.6,-,0.00,,Overcast,10,2013-03-29 05:55:00
1:15 AM,-9999,-9999,N/A,30.21,0.2,North,4.6,-,0.00,,Overcast,360,2013-03-29 06:15:00
1:55 AM,24.8,24.8,100,30.21,0.2,North,3.5,-,0.00,,Overcast,10,2013-03-29 06:55:00
2:15 AM,23.0,23.0,100,30.21,0.2,North,3.5,-,0.00,,Overcast,10,2013-03-29 07:15:00
2:35 AM,23.0,23.0,100,30.20,0.2,North,3.5,-,0.00,,Overcast,10,2013-03-29 07:35:00
2:55 AM,23.0,23.0,100,30.20,0.2,Calm,Calm,-,0.00,,Overcast,0,2013-03-29 07:55:00
3:35 AM,23.0,23.0,100,30.20,0.2,NNE,3.5,-,0.00,,Overcast,30,2013-03-29 08:35:00
3:55 AM,23.0,23.0,100,30.19,0.2,NNE,3.5,-,0.00,,Overcast,20,2013-03-29 08:55:00
4:15 AM,23.0,23.0,100,30.18,0.2,North,4.6,-,0.00,,Overcast,10,2013-03-29 09:15:00
4:35 AM,23.0,23.0,100,30.18,0.2,North,3.5,-,0.00,,Overcast,10,2013-03-29 09:35:00
4:55 AM,23.0,23.0,100,30.18,0.2,North,3.5,-,0.00,,Overcast,10,2013-03-29 09:55:00
5:15 AM,23.0,23.0,100,30.17,0.2,North,3.5,-,0.00,,Overcast,10,2013-03-29 10:15:00
5:35 AM,23.0,23.0,100,30.17,0.2,NNE,3.5,-,0.00,,Overcast,30,2013-03-29 10:35:00
5:55 AM,21.2,21.2,100,30.17,0.2,Calm,Calm,-,0.00,,Overcast,0,2013-03-29 10:55:00
6:15 AM,21.2,21.2,100,30.17,0.2,North,3.5,-,0.00,,Overcast,10,2013-03-29 11:15:00
6:35 AM,-9999,-9999,N/A,30.17,0.2,North,4.6,-,0.00,,Overcast,10,2013-03-29 11:35:00
6:55 AM,21.2,21.2,100,30.17,0.2,North,4.6,-,0.00,,Overcast,10,2013-03-29 11:55:00
7:15 AM,21.2,21.2,100,30.17,0.2,Calm,Calm,-,0.00,,Overcast,0,2013-03-29 12:15:00
7:35 AM,21.2,21.2,100,30.17,0.2,Calm,Calm,-,0.00,,Overcast,0,2013-03-29 12:35:00
7:55 AM,21.2,21.2,100,30.18,0.2,Calm,Calm,-,0.00,,Overcast,0,2013-03-29 12:55:00
8:15 AM,21.2,21.2,100,30.17,0.2,North,4.6,-,0.00,,Overcast,10,2013-03-29 13:15:00
8:35 AM,23.0,23.0,100,30.18,0.2,North,4.6,-,0.00,,Overcast,10,2013-03-29 13:35:00
8:55 AM,23.0,23.0,100,30.17,0.2,NNE,4.6,-,0.00,,Overcast,20,2013-03-29 13:55:00
9:15 AM,23.0,23.0,100,30.18,0.2,North,4.6,-,0.00,,Overcast,10,2013-03-29 14:15:00
9:35 AM,23.0,23.0,100,30.17,0.2,NNE,3.5,-,0.00,,Overcast,20,2013-03-29 14:35:00
9:55 AM,23.0,23.0,100,30.17,0.2,Calm,Calm,-,0.00,,Overcast,0,2013-03-29 14:55:00
10:15 AM,23.0,23.0,100,30.17,0.2,Calm,Calm,-,0.00,,Overcast,0,2013-03-29 15:15:00
10:35 AM,24.8,24.8,100,30.16,0.2,Calm,Calm,-,0.00,,Overcast,0,2013-03-29 15:35:00
10:55 AM,26.6,26.6,100,30.16,0.2,Calm,Calm,-,0.00,,Overcast,0,2013-03-29 15:55:00
11:15 AM,26.6,26.6,100,30.15,0.2,NNE,4.6,-,0.00,,Overcast,20,2013-03-29 16:15:00
11:55 AM,28.4,28.4,100,30.15,0.2,NE,3.5,-,0.00,,Overcast,40,2013-03-29 16:55:00
12:15 PM,-9999,-9999,N/A,30.14,0.2,NE,4.6,-,0.00,,Overcast,50,2013-03-29 17:15:00
12:35 PM,30.2,30.2,100,30.14,0.2,ENE,5.8,-,0.00,,Overcast,70,2013-03-29 17:35:00
12:55 PM,30.2,30.2,100,30.13,0.2,ENE,5.8,-,0.00,,Overcast,70,2013-03-29 17:55:00
1:15 PM,30.2,30.2,100,30.13,0.2,East,4.6,-,0.00,,Overcast,80,2013-03-29 18:15:00
1:35 PM,30.2,30.2,100,30.11,0.2,ENE,4.6,-,0.00,,Overcast,60,2013-03-29 18:35:00
1:55 PM,32.0,32.0,100,30.10,0.8,ENE,5.8,-,0.00,,Overcast,60,2013-03-29 18:55:00
2:15 PM,32.0,32.0,100,30.09,1.2,ENE,6.9,-,0.00,,Overcast,60,2013-03-29 19:15:00
2:35 PM,32.0,32.0,100,30.09,1.8,Calm,Calm,-,0.00,,Mostly Cloudy,0,2013-03-29 19:35:00
2:55 PM,32.0,32.0,100,30.09,2.0,Calm,Calm,-,0.00,,Mostly Cloudy,0,2013-03-29 19:55:00
3:15 PM,32.0,32.0,100,30.08,2.0,Calm,Calm,-,0.00,,Scattered Clouds,0,2013-03-29 20:15:00
3:35 PM,32.0,32.0,100,30.08,2.5,North,4.6,-,0.00,,Clear,10,2013-03-29 20:35:00
3:55 PM,32.0,32.0,100,30.08,3.0,NNE,4.6,-,0.00,,Clear,30,2013-03-29 20:55:00
4:15 PM,32.0,32.0,100,30.07,2.5,NE,9.2,-,0.00,,Clear,40,2013-03-29 21:15:00
4:35 PM,32.0,32.0,100,30.07,2.0,NE,6.9,-,0.00,,Clear,40,2013-03-29 21:35:00
4:55 PM,32.0,32.0,100,30.07,3.0,NNE,3.5,-,0.00,,Clear,30,2013-03-29 21:55:00
5:15 PM,33.8,33.8,100,30.05,2.5,NE,6.9,-,0.00,,Clear,50,2013-03-29 22:15:00
5:35 PM,33.8,33.8,100,30.04,3.0,NE,9.2,-,0.00,,Scattered Clouds,50,2013-03-29 22:35:00
5:55 PM,32.0,32.0,100,30.05,3.0,NNE,6.9,-,0.00,,Scattered Clouds,30,2013-03-29 22:55:00
6:15 PM,32.0,32.0,100,30.04,2.5,ENE,5.8,-,0.00,,Partly Cloudy,60,2013-03-29 23:15:00
6:35 PM,33.8,33.8,100,30.03,2.5,ENE,4.6,-,0.00,,Clear,60,2013-03-29 23:35:00
6:55 PM,33.8,33.8,100,30.03,2.0,East,5.8,-,0.00,,Scattered Clouds,90,2013-03-29 23:55:00
7:15 PM,33.8,33.8,100,30.03,2.0,ESE,4.6,-,0.00,,Scattered Clouds,110,2013-03-30 00:15:00
7:35 PM,33.8,33.8,100,30.01,2.0,ESE,9.2,-,0.00,,Scattered Clouds,110,2013-03-30 00:35:00
7:55 PM,32.0,32.0,100,29.98,1.8,East,9.2,-,0.00,,Mostly Cloudy,90,2013-03-30 00:55:00
8:15 PM,32.0,32.0,100,29.97,1.5,East,6.9,-,0.00,,Mostly Cloudy,80,2013-03-30 01:15:00
8:35 PM,33.8,33.8,100,29.96,3.0,ESE,10.4,-,0.00,,Mostly Cloudy,110,2013-03-30 01:35:00
8:55 PM,33.8,33.8,100,29.96,4.0,ESE,9.2,-,0.00,,Mostly Cloudy,110,2013-03-30 01:55:00
9:15 PM,33.8,33.8,100,29.97,4.0,North,11.5,-,0.00,,Mostly Cloudy,10,2013-03-30 02:15:00
9:35 PM,33.8,33.8,100,29.97,3.0,NNE,8.1,-,0.00,,Scattered Clouds,20,2013-03-30 02:35:00
9:55 PM,33.8,33.8,100,29.97,2.5,NNE,6.9,-,0.00,,Partly Cloudy,20,2013-03-30 02:55:00
10:15 PM,33.8,33.8,100,29.95,2.0,NNE,9.2,-,0.00,,Scattered Clouds,30,2013-03-30 03:15:00
10:35 PM,33.8,33.8,100,29.94,2.5,NE,12.7,-,0.00,,Clear,50,2013-03-30 03:35:00
10:55 PM,33.8,33.8,100,29.93,2.5,NE,11.5,-,0.00,,Partly Cloudy,40,2013-03-30 03:55:00
11:15 PM,33.8,33.8,100,29.94,2.5,North,13.8,-,0.00,,Scattered Clouds,360,2013-03-30 04:15:00
11:35 PM,33.8,33.8,100,29.95,2.5,North,16.1,-,0.00,,Partly Cloudy,360,2013-03-30 04:35:00
11:55 PM,33.8,33.8,100,29.93,2.5,North,16.1,-,0.00,,Partly Cloudy,10,2013-03-30 04:55:00